Location: Samoth
(37.3328°N, 88.7876°W)
Time: 11:27:06
(UTC+00:00)

Tiangong - Visible Passes

Search period start: 24 September 2021 00:00
Search period end: 04 October 2021 00:00
Orbit: 382 x 385 km, 41.5° (Epoch: 24 September)

Date Brightness Start Highest point End Pass type
(mag) Time Alt. Az. Time Alt. Az. Time Alt. Az.
24 Sep 3.5 10:30:00 10° S 10:32:09 17° SE 10:34:19 10° ESE visible
25 Sep 1.6 11:05:42 10° SW 11:08:47 55° SSE 11:11:54 10° ENE visible
26 Sep 2.4 10:08:47 30° SSE 10:08:59 30° SSE 10:11:49 10° E visible
27 Sep 1.0 10:44:09 26° WSW 10:45:45 86° NNW 10:48:55 10° ENE visible
28 Sep 3.1 09:47:13 28° E 09:47:13 28° E 09:48:57 10° ENE visible
28 Sep 1.8 11:19:42 10° W 11:22:44 43° N 11:25:47 10° ENE visible
29 Sep 1.2 10:22:26 54° NW 10:22:44 57° NNW 10:25:52 10° ENE visible
30 Sep 4.4 09:25:25 14° ENE 09:25:25 14° ENE 09:25:55 10° ENE visible
30 Sep 2.1 10:57:37 16° WNW 10:59:47 37° N 11:02:46 10° ENE visible
01 Oct 2.6 10:00:34 34° NNE 10:00:34 34° NNE 10:02:46 10° ENE visible
02 Oct 2.1 10:35:43 27° NW 10:36:49 36° N 10:39:47 10° ENE visible
03 Oct 3.9 09:38:40 18° ENE 09:38:40 18° ENE 09:39:42 10° ENE visible
03 Oct 1.7 11:10:52 11° WNW 11:13:52 52° NNE 11:16:58 10° E visible
